Location: El Carrer d�Abaix
(41.5797°N, 2.1791°E)
Time: 20:54:43
(UTC+00:00)

Cosmos 2082 Rocket - Pass Details

Date: 02 October 2020
Orbit: 834 x 853 km, 71.0° (Epoch: 27 October)

Event Time Altitude Azimuth Distance (km) Brightness Sun altitude
Rises 20:46:01 0° 318° (NW) 3,393 6.3 -35.9°
Reaches altitude 10° 20:49:23 10° 298° (WNW) 2,456 5.4 -36.5°
Maximum altitude 20:52:41 16° 262° (W) 2,055 4.6 -37.0°
Enters shadow 20:54:11 15° 243° (WSW) 2,142 4.5 -37.2°
